RPA47Y KORD-KIND

Flight info

Callsign RPA47Y
Flight time 0h 37m
Altitude 23000
Route DCT EARND DCT ELANR JAKKS2
Aircraft E75S/M-SDE3GILORVW/S

Departure

Time 2026-05-05 19:21
Airport Chicago O'Hare International Airport (KORD)

Arrival

Time 2026-05-05 19:58
Airport Indianapolis International Airport (KIND)
Time Latitude Longitude Altitude Speed Heading
2026-05-05 19:07 41.97431 -87.90831 668 ft 0 kts 333°
2026-05-05 19:10 41.97421 -87.90825 668 ft 3 kts 338°
2026-05-05 19:11 41.97403 -87.90815 666 ft 3 kts 324°
2026-05-05 19:11 41.97399 -87.90808 666 ft 1 kts 250°
2026-05-05 19:11 41.97399 -87.90807 666 ft 1 kts 250°
2026-05-05 19:13 41.97397 -87.90814 666 ft 3 kts 250°
2026-05-05 19:14 41.97391 -87.90833 668 ft 0 kts 246°
2026-05-05 19:14 41.97383 -87.90853 668 ft 3 kts 225°
2026-05-05 19:14 41.97352 -87.90861 668 ft 7 kts 172°
2026-05-05 19:14 41.97291 -87.90815 668 ft 13 kts 136°
2026-05-05 19:15 41.97199 -87.90777 668 ft 11 kts 172°
2026-05-05 19:15 41.97165 -87.90720 668 ft 9 kts 106°
2026-05-05 19:15 41.97150 -87.90600 668 ft 15 kts 96°
2026-05-05 19:15 41.97142 -87.90440 668 ft 19 kts 93°
2026-05-05 19:16 41.97138 -87.90244 668 ft 22 kts 90°
2026-05-05 19:16 41.97139 -87.90028 668 ft 25 kts 91°
2026-05-05 19:16 41.97160 -87.89840 668 ft 20 kts 73°
2026-05-05 19:16 41.97208 -87.89694 666 ft 14 kts 64°
2026-05-05 19:17 41.97257 -87.89560 668 ft 10 kts 64°
2026-05-05 19:17 41.97259 -87.89554 668 ft 2 kts 71°
2026-05-05 19:17 41.97250 -87.89502 668 ft 11 kts 121°
2026-05-05 19:17 41.97195 -87.89355 668 ft 21 kts 88°
2026-05-05 19:18 41.97196 -87.89170 668 ft 22 kts 90°
2026-05-05 19:18 41.97194 -87.88948 668 ft 26 kts 91°
2026-05-05 19:18 41.97196 -87.88696 668 ft 29 kts 83°
2026-05-05 19:18 41.97197 -87.88572 668 ft 10 kts 94°
2026-05-05 19:19 41.97197 -87.88463 668 ft 14 kts 88°
2026-05-05 19:19 41.97200 -87.88333 668 ft 6 kts 97°
2026-05-05 19:19 41.97174 -87.88257 668 ft 15 kts 121°
2026-05-05 19:19 41.97072 -87.88100 668 ft 22 kts 137°
2026-05-05 19:20 41.96957 -87.88047 668 ft 0 kts 197°
2026-05-05 19:20 41.96933 -87.88058 668 ft 8 kts 205°
2026-05-05 19:20 41.96799 -87.88210 666 ft 67 kts 221°
2026-05-05 19:20 41.96186 -87.88916 788 ft 152 kts 221°
2026-05-05 19:21 41.95184 -87.89775 1164 ft 204 kts 201°
2026-05-05 19:21 41.93766 -87.89626 1974 ft 207 kts 155°
2026-05-05 19:21 41.92604 -87.88606 3405 ft 195 kts 147°
2026-05-05 19:21 41.91427 -87.87519 4209 ft 217 kts 148°
2026-05-05 19:22 41.90105 -87.86378 4802 ft 230 kts 150°
2026-05-05 19:22 41.88638 -87.85275 5006 ft 252 kts 156°
2026-05-05 19:22 41.87021 -87.84244 5684 ft 265 kts 159°
2026-05-05 19:22 41.85299 -87.83187 6372 ft 278 kts 160°
2026-05-05 19:23 41.83509 -87.82097 7138 ft 283 kts 160°
2026-05-05 19:23 41.81701 -87.80996 8035 ft 285 kts 161°
2026-05-05 19:23 41.79922 -87.79912 8955 ft 285 kts 163°
2026-05-05 19:23 41.78110 -87.78812 9883 ft 287 kts 163°
2026-05-05 19:24 41.76248 -87.77688 10484 ft 301 kts 163°
2026-05-05 19:24 41.74297 -87.76505 11005 ft 315 kts 162°
2026-05-05 19:24 41.72272 -87.75262 11700 ft 323 kts 162°
2026-05-05 19:24 41.70220 -87.74006 12494 ft 327 kts 162°
2026-05-05 19:25 41.68129 -87.72731 13337 ft 333 kts 162°
2026-05-05 19:25 41.66031 -87.71458 14139 ft 337 kts 162°
2026-05-05 19:25 41.63860 -87.70134 15033 ft 338 kts 162°
2026-05-05 19:25 41.61712 -87.68832 15945 ft 340 kts 163°
2026-05-05 19:26 41.59542 -87.67515 16847 ft 343 kts 163°
2026-05-05 19:26 41.57362 -87.66195 17763 ft 345 kts 163°
2026-05-05 19:26 41.55171 -87.64867 18607 ft 349 kts 163°
2026-05-05 19:26 41.52961 -87.63532 19323 ft 355 kts 163°
2026-05-05 19:27 41.50694 -87.62159 20090 ft 361 kts 163°
2026-05-05 19:27 41.48379 -87.60757 20856 ft 368 kts 163°
2026-05-05 19:27 41.46022 -87.59348 21551 ft 373 kts 166°
2026-05-05 19:27 41.43582 -87.58193 22260 ft 374 kts 171°
2026-05-05 19:28 41.41079 -87.57228 22762 ft 368 kts 174°
2026-05-05 19:28 41.38631 -87.56589 22855 ft 361 kts 181°
2026-05-05 19:28 41.36095 -87.56101 22871 ft 372 kts 181°
2026-05-05 19:28 41.33522 -87.55642 22883 ft 372 kts 181°
2026-05-05 19:29 41.30945 -87.55195 22865 ft 373 kts 181°
2026-05-05 19:29 41.28371 -87.54751 22884 ft 373 kts 181°
2026-05-05 19:29 41.25802 -87.54308 22892 ft 373 kts 181°
2026-05-05 19:29 41.23225 -87.53869 22889 ft 373 kts 182°
2026-05-05 19:30 41.20685 -87.53421 22880 ft 375 kts 179°
2026-05-05 19:30 41.18113 -87.52770 22894 ft 377 kts 178°
2026-05-05 19:30 41.15540 -87.52091 22897 ft 377 kts 178°
2026-05-05 19:30 41.12965 -87.51401 22890 ft 377 kts 177°
2026-05-05 19:31 41.10397 -87.50710 22855 ft 377 kts 177°
2026-05-05 19:31 41.07830 -87.50021 22877 ft 376 kts 177°
2026-05-05 19:31 41.05259 -87.49332 22890 ft 376 kts 178°
2026-05-05 19:31 41.02694 -87.48644 22903 ft 376 kts 177°
2026-05-05 19:32 41.00128 -87.47958 22896 ft 376 kts 178°
2026-05-05 19:32 40.97566 -87.47273 22885 ft 376 kts 178°
2026-05-05 19:32 40.95001 -87.46587 22885 ft 376 kts 178°
2026-05-05 19:32 40.92440 -87.45904 22892 ft 376 kts 178°
2026-05-05 19:33 40.89906 -87.45227 22880 ft 376 kts 178°
2026-05-05 19:33 40.87343 -87.44543 22862 ft 374 kts 177°
2026-05-05 19:33 40.84785 -87.43862 22894 ft 374 kts 177°
2026-05-05 19:33 40.82227 -87.43183 22920 ft 375 kts 177°
2026-05-05 19:34 40.79662 -87.42499 22944 ft 375 kts 177°
2026-05-05 19:34 40.77105 -87.41819 22951 ft 375 kts 178°
2026-05-05 19:34 40.74540 -87.41138 22935 ft 375 kts 177°
2026-05-05 19:35 40.69420 -87.39781 22902 ft 375 kts 177°
2026-05-05 19:35 40.66900 -87.39113 22894 ft 375 kts 177°
2026-05-05 19:35 40.64340 -87.38436 22891 ft 375 kts 177°
2026-05-05 19:35 40.61778 -87.37758 22896 ft 375 kts 177°
2026-05-05 19:36 40.59220 -87.37083 22892 ft 375 kts 177°
2026-05-05 19:36 40.56668 -87.36408 22885 ft 374 kts 178°
2026-05-05 19:36 40.54107 -87.35732 22881 ft 375 kts 178°
2026-05-05 19:36 40.51560 -87.35061 22892 ft 374 kts 177°
2026-05-05 19:37 40.48999 -87.34379 22888 ft 375 kts 176°
2026-05-05 19:37 40.46528 -87.33127 22297 ft 392 kts 157°
2026-05-05 19:37 40.44328 -87.30952 21160 ft 403 kts 146°
2026-05-05 19:37 40.42260 -87.28461 20302 ft 403 kts 142°
2026-05-05 19:38 40.40365 -87.25770 19526 ft 401 kts 136°
2026-05-05 19:38 40.38588 -87.22979 18771 ft 395 kts 135°
2026-05-05 19:38 40.36857 -87.20209 18049 ft 389 kts 135°
2026-05-05 19:38 40.35156 -87.17474 17250 ft 384 kts 134°
2026-05-05 19:39 40.33484 -87.14790 16472 ft 378 kts 134°
2026-05-05 19:39 40.31827 -87.12130 15715 ft 373 kts 134°
2026-05-05 19:39 40.30197 -87.09515 14990 ft 368 kts 134°
2026-05-05 19:39 40.28609 -87.06972 14285 ft 363 kts 134°
2026-05-05 19:40 40.27023 -87.04431 13579 ft 358 kts 134°
2026-05-05 19:40 40.25469 -87.01941 13228 ft 350 kts 134°
2026-05-05 19:40 40.23914 -86.99462 13124 ft 353 kts 134°
2026-05-05 19:40 40.22353 -86.96968 13066 ft 354 kts 134°
2026-05-05 19:41 40.20792 -86.94473 13032 ft 353 kts 134°
2026-05-05 19:41 40.19229 -86.91981 13031 ft 355 kts 134°
2026-05-05 19:41 40.17700 -86.89437 13032 ft 355 kts 133°
2026-05-05 19:41 40.16062 -86.87039 12965 ft 350 kts 138°
2026-05-05 19:42 40.14407 -86.84724 12190 ft 347 kts 139°
2026-05-05 19:42 40.12591 -86.82743 11445 ft 334 kts 151°
2026-05-05 19:42 40.10683 -86.81141 11126 ft 318 kts 154°
2026-05-05 19:42 40.08842 -86.79671 10895 ft 302 kts 155°
2026-05-05 19:43 40.07082 -86.78286 10686 ft 289 kts 155°
2026-05-05 19:43 40.05376 -86.76943 10291 ft 284 kts 155°
2026-05-05 19:43 40.03693 -86.75622 9878 ft 282 kts 155°
2026-05-05 19:43 40.02017 -86.74309 9472 ft 279 kts 156°
2026-05-05 19:44 40.00363 -86.73011 9053 ft 276 kts 155°
2026-05-05 19:44 39.98726 -86.71734 8655 ft 272 kts 155°
2026-05-05 19:44 39.97111 -86.70470 8235 ft 270 kts 155°
2026-05-05 19:44 39.95508 -86.69223 7803 ft 267 kts 155°
2026-05-05 19:45 39.93913 -86.67992 7371 ft 265 kts 155°
2026-05-05 19:45 39.92332 -86.66775 6955 ft 262 kts 155°
2026-05-05 19:45 39.90770 -86.65580 6532 ft 260 kts 155°
2026-05-05 19:45 39.89217 -86.64402 6175 ft 257 kts 155°
2026-05-05 19:46 39.87635 -86.63222 6083 ft 263 kts 155°
2026-05-05 19:46 39.86582 -86.62437 6047 ft 255 kts 155°
2026-05-05 19:46 39.84529 -86.60908 6032 ft 257 kts 155°
2026-05-05 19:46 39.83494 -86.60150 6050 ft 258 kts 155°
2026-05-05 19:47 39.81427 -86.58660 6034 ft 256 kts 156°
2026-05-05 19:47 39.79883 -86.57522 6021 ft 255 kts 155°
2026-05-05 19:47 39.78342 -86.56383 5994 ft 253 kts 155°
2026-05-05 19:47 39.76802 -86.55248 5996 ft 256 kts 156°
2026-05-05 19:48 39.75258 -86.54101 5991 ft 256 kts 156°
2026-05-05 19:48 39.74224 -86.53325 5991 ft 259 kts 155°
2026-05-05 19:48 39.72664 -86.52147 5991 ft 259 kts 155°
2026-05-05 19:48 39.71113 -86.50970 5987 ft 258 kts 155°
2026-05-05 19:49 39.69565 -86.49793 5860 ft 258 kts 155°
2026-05-05 19:49 39.68013 -86.48618 5599 ft 258 kts 155°
2026-05-05 19:49 39.66462 -86.47454 5324 ft 257 kts 155°
2026-05-05 19:49 39.64909 -86.46307 5005 ft 257 kts 155°
2026-05-05 19:50 39.63355 -86.45185 4727 ft 255 kts 155°
2026-05-05 19:50 39.61798 -86.44071 4395 ft 254 kts 155°
2026-05-05 19:50 39.60233 -86.43038 4233 ft 251 kts 165°
2026-05-05 19:50 39.58533 -86.42708 4274 ft 248 kts 173°
2026-05-05 19:51 39.56961 -86.41744 4305 ft 252 kts 149°
2026-05-05 19:51 39.55386 -86.40757 4258 ft 252 kts 167°
2026-05-05 19:51 39.53688 -86.40683 4104 ft 248 kts 194°
2026-05-05 19:51 39.52142 -86.41565 3938 ft 238 kts 213°
2026-05-05 19:52 39.50913 -86.42821 4115 ft 212 kts 229°
2026-05-05 19:52 39.50400 -86.44556 4115 ft 211 kts 265°
2026-05-05 19:52 39.50821 -86.46377 3851 ft 224 kts 301°
2026-05-05 19:52 39.52063 -86.47630 3608 ft 235 kts 335°
2026-05-05 19:53 39.53682 -86.47793 3471 ft 238 kts 12°
2026-05-05 19:53 39.55143 -86.46787 3492 ft 242 kts 45°
2026-05-05 19:53 39.56065 -86.44999 3526 ft 239 kts 65°
2026-05-05 19:53 39.56825 -86.43093 3524 ft 238 kts 64°
2026-05-05 19:54 39.57671 -86.41252 3498 ft 239 kts 51°
2026-05-05 19:54 39.58909 -86.39801 3491 ft 240 kts 35°
2026-05-05 19:54 39.60328 -86.38687 3526 ft 234 kts 27°
2026-05-05 19:54 39.61754 -86.37881 3518 ft 208 kts 18°
2026-05-05 19:55 39.63063 -86.37356 3133 ft 189 kts
2026-05-05 19:55 39.64326 -86.37161 2754 ft 175 kts 14°
2026-05-05 19:55 39.65280 -86.36356 2433 ft 156 kts 42°
2026-05-05 19:55 39.66072 -86.35466 2045 ft 147 kts 43°
2026-05-05 19:56 39.66803 -86.34584 1662 ft 141 kts 44°
2026-05-05 19:56 39.67482 -86.33752 1406 ft 125 kts 43°
2026-05-05 19:56 39.68048 -86.32997 1234 ft 108 kts 46°
2026-05-05 19:56 39.68540 -86.32345 1062 ft 95 kts 42°
2026-05-05 19:57 39.69055 -86.31698 999 ft 107 kts 44°
2026-05-05 19:57 39.69569 -86.31022 949 ft 106 kts 43°
2026-05-05 19:57 39.70070 -86.30383 825 ft 97 kts 41°
2026-05-05 19:57 39.70531 -86.29820 789 ft 81 kts 46°
2026-05-05 19:58 39.70873 -86.29392 784 ft 52 kts 45°
2026-05-05 19:58 39.71109 -86.29068 786 ft 47 kts 44°
2026-05-05 19:58 39.71345 -86.28826 787 ft 30 kts 22°
2026-05-05 19:58 39.71502 -86.28815 786 ft 17 kts
2026-05-05 19:59 39.71540 -86.28808 785 ft 2 kts 12°
2026-05-05 19:59 39.71605 -86.28831 784 ft 19 kts 324°
2026-05-05 19:59 39.71630 -86.28969 784 ft 14 kts 224°
2026-05-05 19:59 39.71573 -86.29094 785 ft 20 kts 249°
2026-05-05 20:00 39.71553 -86.29162 784 ft 0 kts 249°